SCP
0 0 0 0 0 0 0 0 0 0 0 0 0 0 0 0 0 0 0 0 0 0 0 0 0 0 0 0 0 0 0 0 0 0 0 0 0 0
0 0 0 0 0 0 0 0 0 0 0 0 0 0 0 0 0 0 0 0 0 0 0 0 0 0 0 0 0 0 0 0 0 0 0 0 0 0
0 0 0 0 0 0 0 0 0 0 0 0 0 0 0 0 0 0 0 0 0 0 0 0 0 0 0 0 0 0 0 0 0 0 0 0 0 0
0 0 0 0 0 0 0 0 0 0 0 0 0 0 0 0 0 0 0 0 0 0 0 0 0 0 0 0 0 0 0 0 0 0 0 0 0 0
0 0 0 0 0 0 0 0 0 0 0 0 0 0 0 0 0 0 0 0 0 0 0 0 0 0 0 0 0 0 0 0 0 0 0 0 0 0
0 0 0 0 0 0 0 0 0 0 0 0 0 0 0 0 0 0 0 0 0 0 0 0 0 0 0 0 0 0 0 0 0 -0 0 0 0 0
0 0 0 0 0 0 0 0 0 0 0 0 0 0 0 0 0 0 0 0 0 0 0 0 0 0 0 0 0 0 0 0 -0 -0 -0 0 0 0
0 0 0 0 0 0 0 0 0 0 0 0 0 0 0 0 0 0 0 0 0 0 0 0 0 0 0 0 0 0 0 0 -0 -0 -0 0 0 0
0 0 0 0 0 0 0 0 0 0 0 0 0 0 0 0 0 0 0 0 0 0 0 0 0 0 0 0 0 0 0 0 0 0 0 0 0 0
0 0 0 0 0 0 0 0 0 0 0 0 0 0 0 0 0 0 0 0 0 0 0 0 0 0 0 0 0 0 0 0 0 0 0 0 0 0
0 0 0 0 0 0 0 0 0 0 0 0 0 0 0 0 0 0 0 0 0 0 0 0 0 0 0 0 0 0 0 0 0 0 0 0 0 0
0 0 0 0 0 0 0 0 0 0 0 0 0 0 0 0 0 0 0 0 0 0 0 0 0 0 0 0 0 0 0 0 0 0 0 0 0 0
0 0 0 0 0 0 0 0 0 0 0 0 0 0 0 0 0 0 0 0 0 0 0 0 0 0 0 0 0 0 0 0 0 0 0 0 0 0
0 0 0 0 0 0 0 0 0 0 0 0 0 0 0 0 0 0 0 0 0 0 0 0 0 0 0 0 0 0 0 0 0 0 0 0 0 0
0 0 -0 -0 0 0 0 0 0 0 0 0 0 0 0 0 0 0 0 0 0 0 0 0 0 -0 0 0 0 0 0 0 0 0 0 0 0 0
-0 0 -0 -0 -0 -0 -0 0 0 0 0 0 0 0 0 0 0 0 0 0 0 0 0 0 0 -0 0 0 0 0 0 0 0 0 0 0 0 0
0 0 0 0 0 0 0 0 0 0 0 0 0 0 0 0 0 0 0 0 0 0 0 0 0 0 0 0 0 0 0 0 0 0 0 0 0 0
0 0 0 0 0 0 0 0 0 0 0 0 0 -0 0 -0 -0 0 0 0 0 0 0 0 0 0 0 0 0 0 0 0 0 0 0 0 0 0
0 0 0 0 0 0 0 0 0 0 0 0 -0 -0 0 -0 -0 -0 -0 0 0 0 0 0 0 0 0 0 0 0 0 0 0 0 0 0 0 0
0 0 0 0 0 0 0 0 0 0 0 0 0 0 0 0 -0 0 0 0 0 0 0 0 0 0 0 0 0 0 0 0 0 0 0 0 0 0
0 0 0 0 0 0 0 0 0 0 0 0 0 0 0 0 -0 0 0 0 0 0 0 0 0 0 0 0 0 0 0 0 0 0 0 0 0 0
0 0 0 0 0 0 0 0 0 0 0 0 0 0 0 0 0 0 0 0 0 -0 -0 -0 0 0 0 0 0 0 0 0 0 0 0 0 0 0
0 0 0 0 0 0 0 0 0 0 0 0 0 0 0 0 0 0 0 0 0 0 0 0 0 0 0 0 0 0 0 0 0 0 0 0 0 0
Wind_Speed_500mb
53 48 47 47 49 54 57 52 50 51 54 50 51 48 47 49 47 46 49 50 53 59 59 57 52 50 51 49 46 50 46 44 45 50 55 59 56 57
42 43 46 47 47 49 49 49 48 45 58 55 65 64 56 58 59 58 55 49 57 63 60 59 60 53 53 56 54 53 45 41 43 43 41 46 49 50
42 42 45 49 53 56 58 54 54 56 66 87 91 81 73 70 70 70 66 62 62 60 61 62 62 60 57 56 56 58 40 36 36 38 38 39 44 47
46 53 55 54 51 51 51 69 70 68 62 81 83 78 71 67 69 70 73 70 65 64 65 64 64 61 57 55 59 50 42 30 34 33 38 40 43 50
42 44 44 46 46 46 46 49 48 51 53 61 68 65 60 54 60 68 74 76 72 67 64 61 58 60 62 64 55 50 47 47 49 56 57 50 47 49
51 51 51 52 55 57 59 61 61 63 64 69 76 79 76 72 69 68 76 76 74 70 70 67 67 68 63 62 53 53 55 60 59 64 62 60 54 52
68 67 68 67 68 69 69 71 68 68 67 69 76 77 76 74 75 72 77 74 72 66 70 60 55 53 52 50 50 58 63 60 62 67 69 62 57 55
82 81 79 78 79 80 79 78 76 75 76 74 77 77 78 77 76 72 67 68 62 59 69 73 69 68 58 59 47 50 57 58 69 67 63 53 55 57
66 68 70 71 72 73 74 75 78 78 80 82 89 90 90 87 86 84 82 76 77 82 72 78 77 73 78 74 74 63 58 63 67 64 58 49 49 54
48 48 51 51 47 49 52 56 57 58 60 63 68 71 75 75 73 69 71 71 72 71 64 72 68 76 77 70 58 57 62 69 64 59 50 47 45 46
47 46 45 48 46 41 47 53 57 59 57 57 56 53 55 60 65 65 69 65 69 52 52 60 58 57 51 51 53 62 68 57 52 50 44 38 34 35
49 51 49 49 48 43 44 50 56 59 60 53 52 52 48 49 48 51 54 59 57 46 58 68 71 62 44 45 46 42 38 40 39 35 32 26 27 30
53 54 53 49 49 47 45 53 57 53 53 52 54 57 58 58 61 55 55 54 57 62 46 31 35 34 49 41 11 23 18 17 20 26 24 23 24 27
50 52 53 46 42 42 47 50 52 54 59 57 57 60 59 59 58 50 45 46 41 37 33 28 38 39 42 35 37 32 29 25 14 19 21 18 22 19
45 47 49 53 52 50 46 46 47 50 51 58 62 61 50 48 50 41 39 39 41 35 35 35 39 36 30 23 32 26 17 18 10 8 11 13 15 17
53 53 56 58 59 61 59 53 53 54 55 56 58 55 51 46 41 32 35 35 36 42 40 36 37 37 31 33 26 21 14 11 4 5 6 4 7 15
65 60 60 67 69 65 58 62 55 46 51 51 50 53 46 43 35 25 27 30 37 36 27 34 32 28 30 29 22 22 14 14 11 9 11 6 8 12
57 61 61 57 57 59 65 77 71 57 53 49 41 44 38 41 37 34 26 33 37 34 39 21 32 34 29 26 24 24 19 20 14 14 16 14 11 8
49 52 47 58 62 61 57 56 61 58 40 34 17 20 27 27 13 16 22 25 29 34 41 26 23 28 34 25 23 24 20 17 17 21 21 20 14 13
60 58 55 50 54 52 53 53 69 62 52 28 13 9 15 11 20 17 20 22 22 27 32 27 27 26 25 28 22 15 21 14 15 21 20 16 16 13
76 65 57 48 52 53 56 60 63 64 55 49 43 30 23 22 18 16 17 18 19 24 34 35 30 26 28 22 24 24 17 19 19 14 13 13 8 9
75 77 72 73 59 59 57 60 59 63 57 46 42 39 33 20 14 17 13 8 9 17 20 22 23 28 31 29 30 28 28 21 19 18 12 7 4 5
66 73 76 77 81 74 60 61 58 56 54 52 42 32 26 25 24 15 13 15 11 3 16 24 26 32 28 26 23 26 31 29 27 17 11 12 10 5
Wind_Direction_500mb
272 263 258 261 253 256 253 253 256 259 265 264 265 264 266 270 271 272 269 272 271 283 290 289 291 301 299 297 301 312 303 298 296 289 281 274 271 267
260 259 258 255 252 250 250 251 254 261 272 272 275 273 271 272 271 271 273 268 267 273 278 283 286 291 289 293 294 307 301 297 301 302 294 281 272 267
267 260 255 253 253 253 251 250 255 262 270 277 273 272 271 270 269 272 273 271 271 270 271 275 281 285 285 286 288 301 297 300 305 300 293 287 273 267
276 270 269 267 266 267 267 261 261 270 263 262 268 272 270 268 270 270 271 274 273 271 274 273 276 278 281 278 286 284 285 288 304 316 308 295 279 270
284 280 278 277 276 276 268 269 265 265 266 268 274 276 278 275 276 273 272 272 273 274 274 276 273 274 277 279 275 267 268 277 289 296 301 304 291 277
282 280 279 276 277 275 275 276 275 274 272 272 272 275 276 277 274 273 271 273 275 273 273 273 274 274 272 271 267 258 260 275 287 296 296 293 290 281
280 277 277 276 277 278 279 280 279 277 274 272 271 272 273 272 270 274 274 276 273 272 273 269 269 267 264 264 271 259 261 274 289 292 295 285 283 282
284 281 278 275 273 272 271 271 272 271 270 270 270 270 271 271 272 273 273 273 274 270 269 268 268 270 265 263 271 279 266 276 285 293 291 275 274 280
290 291 288 285 283 280 277 274 270 268 266 266 265 264 268 271 273 272 271 267 270 274 273 271 263 258 261 264 269 272 265 276 284 288 289 266 265 274
297 293 292 290 288 285 283 282 279 273 267 262 261 261 263 266 265 267 269 271 273 273 271 269 267 264 265 266 261 257 265 270 281 283 280 264 262 265
303 299 294 288 283 277 276 278 278 275 270 266 266 265 262 260 259 262 260 263 265 274 272 265 265 267 268 261 258 257 263 271 274 277 271 263 258 264
309 301 296 294 293 284 277 282 286 287 286 274 266 265 267 267 262 257 260 260 263 271 270 258 260 260 265 271 262 260 256 263 265 258 261 260 254 245
311 311 310 310 297 290 281 279 277 286 288 282 275 274 271 268 267 261 257 253 260 260 267 251 264 262 249 252 248 227 236 265 257 245 261 248 252 244
318 316 315 319 318 308 297 290 286 282 276 274 273 274 275 276 276 277 268 253 259 247 245 254 257 250 252 239 241 239 254 270 247 248 257 254 246 244
343 337 333 329 323 316 311 302 293 285 280 272 271 272 275 284 283 272 258 248 252 244 249 247 244 245 222 241 232 228 249 247 266 287 249 244 240 212
335 334 330 326 323 318 315 309 299 290 279 272 269 274 280 278 277 266 250 245 247 245 247 245 240 241 221 218 206 235 252 219 191 279 272 246 192 180
337 336 332 330 330 338 343 335 338 323 285 279 267 263 270 265 267 250 238 233 234 234 236 223 220 212 212 192 218 232 249 239 242 259 243 214 202 199
330 328 337 351 352 349 347 357 351 347 329 306 273 258 249 255 259 251 240 224 221 218 214 190 200 197 194 218 217 233 242 240 226 243 211 197 196 188
13 2 2 2 3 356 1 3 359 356 347 326 318 255 235 254 222 214 213 211 211 216 218 196 199 191 192 200 216 231 235 222 214 210 192 199 206 205
28 23 17 16 24 26 22 18 16 16 22 34 84 129 174 195 165 187 192 198 196 199 198 194 197 199 210 217 212 203 191 194 196 197 188 196 201 215
32 35 36 32 29 30 34 31 33 31 46 64 78 90 112 134 158 151 152 158 166 177 197 211 214 216 219 217 198 188 187 181 183 187 194 181 185 189
38 42 43 38 41 39 37 39 44 42 42 59 75 91 99 107 129 137 142 138 128 171 188 194 189 197 188 189 185 185 185 172 157 159 161 163 190 171
45 44 44 42 43 41 42 43 45 50 48 43 54 69 82 102 115 103 104 94 96 205 145 163 148 158 176 184 186 178 176 170 171 181 184 203 214 211
Wind_Speed_850mb
53 48 47 47 49 54 57 52 50 51 54 50 51 48 47 49 47 46 49 50 53 59 59 57 52 50 51 49 46 50 46 44 45 50 55 59 56 57
42 43 46 47 47 49 49 49 48 45 58 55 65 64 56 58 59 58 55 49 57 63 60 59 60 53 53 56 54 53 45 41 43 43 41 46 49 50
42 42 45 49 53 56 58 54 54 56 66 87 91 81 73 70 70 70 66 62 62 60 61 62 62 60 57 56 56 58 40 36 36 38 38 39 44 47
46 53 55 54 51 51 51 69 70 68 62 81 83 78 71 67 69 70 73 70 65 64 65 64 64 61 57 55 59 50 42 30 34 33 38 40 43 50
42 44 44 46 46 46 46 49 48 51 53 61 68 65 60 54 60 68 74 76 72 67 64 61 58 60 62 64 55 50 47 47 49 56 57 50 47 49
51 51 51 52 55 57 59 61 61 63 64 69 76 79 76 72 69 68 76 76 74 70 70 67 67 68 63 62 53 53 55 60 59 64 62 60 54 52
68 67 68 67 68 69 69 71 68 68 67 69 76 77 76 74 75 72 77 74 72 66 70 60 55 53 52 50 50 58 63 60 62 67 69 62 57 55
82 81 79 78 79 80 79 78 76 75 76 74 77 77 78 77 76 72 67 68 62 59 69 73 69 68 58 59 47 50 57 58 69 67 63 53 55 57
66 68 70 71 72 73 74 75 78 78 80 82 89 90 90 87 86 84 82 76 77 82 72 78 77 73 78 74 74 63 58 63 67 64 58 49 49 54
48 48 51 51 47 49 52 56 57 58 60 63 68 71 75 75 73 69 71 71 72 71 64 72 68 76 77 70 58 57 62 69 64 59 50 47 45 46
47 46 45 48 46 41 47 53 57 59 57 57 56 53 55 60 65 65 69 65 69 52 52 60 58 57 51 51 53 62 68 57 52 50 44 38 34 35
49 51 49 49 48 43 44 50 56 59 60 53 52 52 48 49 48 51 54 59 57 46 58 68 71 62 44 45 46 42 38 40 39 35 32 26 27 30
53 54 53 49 49 47 45 53 57 53 53 52 54 57 58 58 61 55 55 54 57 62 46 31 35 34 49 41 11 23 18 17 20 26 24 23 24 27
50 52 53 46 42 42 47 50 52 54 59 57 57 60 59 59 58 50 45 46 41 37 33 28 38 39 42 35 37 32 29 25 14 19 21 18 22 19
45 47 49 53 52 50 46 46 47 50 51 58 62 61 50 48 50 41 39 39 41 35 35 35 39 36 30 23 32 26 17 18 10 8 11 13 15 17
53 53 56 58 59 61 59 53 53 54 55 56 58 55 51 46 41 32 35 35 36 42 40 36 37 37 31 33 26 21 14 11 4 5 6 4 7 15
65 60 60 67 69 65 58 62 55 46 51 51 50 53 46 43 35 25 27 30 37 36 27 34 32 28 30 29 22 22 14 14 11 9 11 6 8 12
57 61 61 57 57 59 65 77 71 57 53 49 41 44 38 41 37 34 26 33 37 34 39 21 32 34 29 26 24 24 19 20 14 14 16 14 11 8
49 52 47 58 62 61 57 56 61 58 40 34 17 20 27 27 13 16 22 25 29 34 41 26 23 28 34 25 23 24 20 17 17 21 21 20 14 13
60 58 55 50 54 52 53 53 69 62 52 28 13 9 15 11 20 17 20 22 22 27 32 27 27 26 25 28 22 15 21 14 15 21 20 16 16 13
76 65 57 48 52 53 56 60 63 64 55 49 43 30 23 22 18 16 17 18 19 24 34 35 30 26 28 22 24 24 17 19 19 14 13 13 8 9
75 77 72 73 59 59 57 60 59 63 57 46 42 39 33 20 14 17 13 8 9 17 20 22 23 28 31 29 30 28 28 21 19 18 12 7 4 5
66 73 76 77 81 74 60 61 58 56 54 52 42 32 26 25 24 15 13 15 11 3 16 24 26 32 28 26 23 26 31 29 27 17 11 12 10 5
Wind_Direction_850mb
272 263 258 261 253 256 253 253 256 259 265 264 265 264 266 270 271 272 269 272 271 283 290 289 291 301 299 297 301 312 303 298 296 289 281 274 271 267
260 259 258 255 252 250 250 251 254 261 272 272 275 273 271 272 271 271 273 268 267 273 278 283 286 291 289 293 294 307 301 297 301 302 294 281 272 267
267 260 255 253 253 253 251 250 255 262 270 277 273 272 271 270 269 272 273 271 271 270 271 275 281 285 285 286 288 301 297 300 305 300 293 287 273 267
276 270 269 267 266 267 267 261 261 270 263 262 268 272 270 268 270 270 271 274 273 271 274 273 276 278 281 278 286 284 285 288 304 316 308 295 279 270
284 280 278 277 276 276 268 269 265 265 266 268 274 276 278 275 276 273 272 272 273 274 274 276 273 274 277 279 275 267 268 277 289 296 301 304 291 277
282 280 279 276 277 275 275 276 275 274 272 272 272 275 276 277 274 273 271 273 275 273 273 273 274 274 272 271 267 258 260 275 287 296 296 293 290 281
280 277 277 276 277 278 279 280 279 277 274 272 271 272 273 272 270 274 274 276 273 272 273 269 269 267 264 264 271 259 261 274 289 292 295 285 283 282
284 281 278 275 273 272 271 271 272 271 270 270 270 270 271 271 272 273 273 273 274 270 269 268 268 270 265 263 271 279 266 276 285 293 291 275 274 280
290 291 288 285 283 280 277 274 270 268 266 266 265 264 268 271 273 272 271 267 270 274 273 271 263 258 261 264 269 272 265 276 284 288 289 266 265 274
297 293 292 290 288 285 283 282 279 273 267 262 261 261 263 266 265 267 269 271 273 273 271 269 267 264 265 266 261 257 265 270 281 283 280 264 262 265
303 299 294 288 283 277 276 278 278 275 270 266 266 265 262 260 259 262 260 263 265 274 272 265 265 267 268 261 258 257 263 271 274 277 271 263 258 264
309 301 296 294 293 284 277 282 286 287 286 274 266 265 267 267 262 257 260 260 263 271 270 258 260 260 265 271 262 260 256 263 265 258 261 260 254 245
311 311 310 310 297 290 281 279 277 286 288 282 275 274 271 268 267 261 257 253 260 260 267 251 264 262 249 252 248 227 236 265 257 245 261 248 252 244
318 316 315 319 318 308 297 290 286 282 276 274 273 274 275 276 276 277 268 253 259 247 245 254 257 250 252 239 241 239 254 270 247 248 257 254 246 244
343 337 333 329 323 316 311 302 293 285 280 272 271 272 275 284 283 272 258 248 252 244 249 247 244 245 222 241 232 228 249 247 266 287 249 244 240 212
335 334 330 326 323 318 315 309 299 290 279 272 269 274 280 278 277 266 250 245 247 245 247 245 240 241 221 218 206 235 252 219 191 279 272 246 192 180
337 336 332 330 330 338 343 335 338 323 285 279 267 263 270 265 267 250 238 233 234 234 236 223 220 212 212 192 218 232 249 239 242 259 243 214 202 199
330 328 337 351 352 349 347 357 351 347 329 306 273 258 249 255 259 251 240 224 221 218 214 190 200 197 194 218 217 233 242 240 226 243 211 197 196 188
13 2 2 2 3 356 1 3 359 356 347 326 318 255 235 254 222 214 213 211 211 216 218 196 199 191 192 200 216 231 235 222 214 210 192 199 206 205
28 23 17 16 24 26 22 18 16 16 22 34 84 129 174 195 165 187 192 198 196 199 198 194 197 199 210 217 212 203 191 194 196 197 188 196 201 215
32 35 36 32 29 30 34 31 33 31 46 64 78 90 112 134 158 151 152 158 166 177 197 211 214 216 219 217 198 188 187 181 183 187 194 181 185 189
38 42 43 38 41 39 37 39 44 42 42 59 75 91 99 107 129 137 142 138 128 171 188 194 189 197 188 189 185 185 185 172 157 159 161 163 190 171
45 44 44 42 43 41 42 43 45 50 48 43 54 69 82 102 115 103 104 94 96 205 145 163 148 158 176 184 186 178 176 170 171 181 184 203 214 211